Погода в Палмасе

Бразилия     10°10′09″S   48°19′55″W
темп.,
°C
ветер,
м/с
пор.,
м/с
влажн.,
%
обл.,
%
осадки,
мм/ч
давл.,
гПа
погр.,
м
1 марта, пн
пн100:00+22всв2394100 2.9 100973
03:00+21в2496100 3.5 1008156
06:00+21в2395100 0.2 1008122
09:00+22в1394100 0.2 1010210
12:00+23св0189100 0.0 1009191
15:00+26вюв1383100 0.9 1005522
18:00+24з1193100 5.1 100524
21:00+23ссв0195100 11.1 100927
2 марта, вт
вт200:00+22сз0197100 5.3 101024
03:00+21сз12100100 9.3 1008122
06:00+21зюз1199100 0.3 101075
09:00+22сз1197100 0.6 1012140
12:00+25сз1290100 2.8 1012472
15:00+24зсз1293100 9.6 1009423
18:00+23юз129699 2.5 1009184
21:00+21ююв1198100 2.8 101124
3 марта, ср
ср300:00+22ююз0095100 0.1 101223
03:00+21зсз1197100 1.2 101126
06:00+21всв119799 2.0 101223
09:00+22с129599 5.1 1015109
12:00+25юв1388100 2.9 1014622
15:00+26в238687 8.0 1010722
18:00+25в1192100 4.9 101037
21:00+22в1294100 7.3 101325
4 марта, чт
чт400:00+21всв1295100 1.3 101325
03:00+21с1295100 5.3 101226
06:00+20зюз0198100 0.6 101323
09:00+24зюз1192100 1.4 1015169
12:00+28вюв137699 3.9 1013810
15:00+27ююз2279100 6.1 1010786
18:00+25ююз1192100 1.8 100925
21:00+23ю119599 2.2 101124
5 марта, пт
пт500:00+22в1195100 0.1 101223
03:00+22вюв119399 2.4 101026
06:00+21вюв0195100 2.3 101123
09:00+26с128797 4.9 1013278
12:00+27зсз118275 7.6 1012520
15:00+27з118187 11.8 1008719
18:00+25зюз1187100 1.6 100824
21:00+23ссз0193100 1.6 101024